Find Jay C

NORAD ID: 62668 Int'l Des: 2025-009 Owner: DRDC/UTIAS Country: CA operational
LEOCIRCULARRETROGRADESSO

实时位置

正在加载3D地球...

关于 Jay C

正在加载描述...

即将过境

Passes for default location (London). Set your location on the main map for personalized predictions.

高度历史

Loading altitude history...

两行轨道根数

1 62668U 25009BM 26139.78693567 .00002351 00000-0 10556-3 0 9997
2 62668 97.3962 219.1716 0006072 84.0479 276.1449 15.22142013132055
Epoch: May 19, 2026 • Age: 6 hours

当前状态

高度 500.5 km
速度 7.62 km/s
星下点 27.79°N, 41.98°W
发射日期 Jan 14, 2025
运行时间 1.3 years
类型 other

技术详情

分类 Payload
质量 35.00 kg
干质量 35.00 kg
总质量 35.00 kg
长度 0.40 m
直径 0.30 m
跨度 0.40 m
形状 Box+ 2 pan
制造商 UTIAS
平台类型 Defiant
阶段状态 In Orbit
所有者/国家 DRDC/UTIAS/CA

Most Searched